CW3224 Weather Reports


time (UTC)temp
F
wind
direction
speed
knots
gust
knots
rain 1hr
in
rain 24hr
in
rain mn
in
humidity
%
barometer
mb
20260902221451 69 166 0.9 4.3 0.00 0.00 0.00 71 1020.2
20260902220009 69 140 0.0 5.2 0.00 0.00 0.00 70 1020.0
20260902215005 69 157 0.9 6.1 0.00 0.00 0.00 69 1020.0
20260902214005 69 66 0.0 2.6 0.00 0.00 0.00 69 1019.9
20260902213910 69 137 0.0 0.0 0.00 0.00 0.00 69 1019.9
20260902212001 70 123 0.0 3.5 0.00 0.00 0.00 70 1019.9
20260902211002 70 128 0.9 6.1 0.00 0.00 0.00 69 1019.5
20260902205954 70 119 0.9 4.3 0.00 0.01 0.00 71 1019.5
20260902205908 70 125 0.9 2.6 0.00 0.01 0.00 70 1019.8
20260902203955 71 166 0.0 2.6 0.00 0.02 0.00 70 1020.2
20260902202955 71 178 0.0 3.5 0.00 0.03 0.00 69 1020.2
20260902202437 71 51 0.0 2.6 0.00 0.04 0.00 66 1020.3
20260902200953 71 92 0.9 7.0 0.00 0.05 0.00 65 1020.5
20260902195954 71 75 0.0 5.2 0.00 0.05 0.00 67 1020.4
20260902194952 71 107 0.0 0.9 0.00 0.07 0.00 68 1020.4
20260902193951 71 248 0.0 4.3 0.00 0.08 0.00 66 1020.7
20260902192952 72 104 0.0 3.5 0.00 0.09 0.00 67 1020.8
20260902191951 72 145 0.0 0.0 0.00 0.11 0.00 69 1020.8
20260902190951 72 137 0.0 2.6 0.00 0.11 0.00 69 1020.8
20260902185951 72 139 0.0 6.1 0.00 0.14 0.00 69 1020.6
20260902184950 72 112 0.9 7.0 0.00 0.18 0.00 67 1020.6
20260902183951 72 148 0.9 6.1 0.00 0.25 0.00 66 1020.8
20260902182952 72 123 0.9 7.8 0.00 0.31 0.00 68 1020.7
20260902181948 73 9 0.0 3.5 0.00 0.38 0.00 68 1020.7
20260902180950 72 155 0.0 4.3 0.00 0.42 0.00 71 1020.8
20260902175949 72 341 0.0 0.9 0.00 0.43 0.00 70 1020.8
20260902174949 72 66 0.0 0.9 0.00 0.43 0.00 72 1020.8
20260902173948 72 177 0.0 3.5 0.00 0.43 0.00 72 1020.6
20260902172952 72 68 0.0 3.5 0.00 0.43 0.00 73 1020.8
20260902171940 72 168 0.0 0.0 0.00 0.43 0.00 72 1020.8
20260902170938 72 52 0.9 6.1 0.00 0.44 0.00 70 1020.8
20260902165939 72 146 0.9 5.2 0.00 0.44 0.00 73 1021.0
20260902164939 72 256 1.7 6.1 0.00 0.45 0.00 74 1021.0
20260902163938 71 153 0.9 6.1 0.00 0.46 0.00 76 1021.3
20260902163419 71 169 0.0 2.6 0.00 0.47 0.00 81 1021.4
20260902161936 70 146 0.9 5.2 0.00 0.47 0.00 80 1021.4
20260902160937 70 147 1.7 5.2 0.00 0.47 0.00 81 1021.7
20260902155937 70 236 0.9 4.3 0.00 0.47 0.00 82 1021.8
20260902155412 69 58 0.9 3.5 0.00 0.47 0.00 85 1021.8
20260902153938 69 204 0.9 3.5 0.00 0.47 0.00 85 1022.0
20260902152931 68 92 0.9 3.5 0.00 0.47 0.00 85 1022.0
20260902151928 67 154 0.9 5.2 0.00 0.47 0.00 87 1022.0
20260902150929 67 126 0.0 2.6 0.00 0.47 0.00 91 1021.9
20260902150408 66 301 0.0 3.5 0.00 0.47 0.00 92 1022.1
20260902144929 65 39 0.0 2.6 0.00 0.47 0.00 93 1022.1
20260902143914 65 65 0.0 0.0 0.00 0.47 0.00 94 1021.9
20260902142916 65 160 0.0 0.0 0.00 0.47 0.00 95 1021.8
20260902141912 65 301 0.0 0.0 0.00 0.47 0.00 95 1021.8
20260902140912 64 301 0.0 1.7 0.00 0.47 0.00 95 1021.4
20260902135912 64 301 0.0 2.6 0.00 0.47 0.00 95 1021.3
20260902134912 64 113 0.9 2.6 0.00 0.47 0.00 95 1021.3
20260902133910 63 45 0.0 2.6 0.00 0.47 0.00 95 1021.3
20260902133350 63 114 0.0 4.3 0.00 0.47 0.00 95 1021.2
20260902131908 63 46 0.9 4.3 0.00 0.47 0.00 95 1021.2
20260902130909 63 301 0.0 1.7 0.00 0.47 0.00 95 1021.3
20260902125909 62 140 0.0 1.7 0.00 0.47 0.00 95 1021.4
20260902124909 62 141 0.0 0.9 0.00 0.49 0.00 95 1021.4
20260902123908 62 301 0.0 0.0 0.00 0.49 0.00 95 1021.8
20260902122908 62 301 0.0 0.0 0.00 0.52 0.00 95 1021.5
20260902121908 62 301 0.0 0.0 0.00 0.56 0.00 95 1021.5
20260902120908 61 301 0.0 0.0 0.00 0.57 0.00 95 1021.6
20260902115909 61 301 0.0 0.0 0.00 0.57 0.00 95 1021.8
20260902114908 61 301 0.0 0.0 0.00 0.58 0.00 95 1021.8
20260902113909 61 301 0.0 0.0 0.00 0.58 0.00 95 1021.8
20260902112859 61 301 0.0 0.0 0.00 0.58 0.00 95 1021.5
20260902111859 61 141 0.0 0.0 0.00 0.58 0.00 95 1021.5
20260902110858 61 141 0.0 0.0 0.00 0.58 0.00 95 1021.7
20260902110820 61 141 0.0 0.0 0.00 0.58 0.00 95 1021.3
20260902104858 60 141 0.0 0.0 0.00 0.58 0.00 95 1021.3
20260902103858 60 141 0.0 0.0 0.00 0.58 0.00 95 1021.0
20260902102844 60 141 0.0 0.0 0.00 0.59 0.00 95 1021.1
20260902101845 60 141 0.0 0.0 0.00 0.59 0.00 95 1021.1
20260902100845 60 141 0.0 0.0 0.00 0.59 0.00 95 1020.8
20260902095844 60 141 0.0 0.0 0.00 0.59 0.00 95 1020.8
20260902094844 60 141 0.0 0.0 0.00 0.59 0.00 95 1020.8
20260902093846 60 141 0.0 0.0 0.00 0.60 0.00 95 1020.7
20260902092836 60 141 0.0 0.0 0.00 0.60 0.00 94 1020.5
20260902092315 60 141 0.0 0.0 0.00 0.60 0.00 94 1020.5
20260902090835 60 141 0.0 0.0 0.00 0.60 0.00 94 1020.3
20260902085836 60 141 0.0 0.0 0.00 0.60 0.00 94 1020.2
20260902084835 61 141 0.0 0.0 0.00 0.60 0.00 95 1020.2
20260902083834 61 141 0.0 0.0 0.00 0.60 0.00 95 1020.2
20260902082835 61 141 0.0 0.0 0.00 0.60 0.00 95 1020.3
20260902082311 61 141 0.0 0.0 0.00 0.60 0.00 95 1020.3
20260902080835 61 141 0.0 0.0 0.00 0.60 0.00 95 1020.3
20260902080311 61 141 0.0 0.0 0.00 0.60 0.00 95 1020.3
20260902074835 61 141 0.0 0.0 0.00 0.60 0.00 94 1020.3
20260902073823 61 141 0.0 0.0 0.00 0.60 0.00 94 1020.6
20260902072821 60 141 0.0 0.0 0.00 0.60 0.00 94 1020.4
20260902072257 60 141 0.0 0.0 0.00 0.60 0.00 94 1020.4
20260902070821 60 141 0.0 0.0 0.00 0.60 0.00 94 1020.3
20260902065820 60 141 0.0 0.0 0.00 0.60 0.00 94 1020.2
20260902064821 60 141 0.0 0.0 0.00 0.60 0.00 94 1020.2
20260902063817 60 141 0.0 0.0 0.00 0.60 0.00 94 1020.3
20260902062817 60 141 0.0 0.0 0.00 0.60 0.00 94 1020.3
20260902061817 60 141 0.0 0.0 0.00 0.60 0.00 94 1020.3
20260902060818 60 141 0.0 0.0 0.00 0.60 0.00 94 1020.3
20260902055817 60 141 0.0 0.0 0.00 0.60 0.00 94 1020.3
20260902054818 60 141 0.0 0.0 0.00 0.60 0.00 94 1020.3
20260902053813 60 141 0.0 0.0 0.00 0.60 0.00 94 1020.2
20260902052811 60 141 0.0 0.0 0.00 0.60 0.00 94 1020.2
20260902051811 60 141 0.0 0.0 0.00 0.60 0.00 94 1020.2
20260902050812 60 141 0.0 0.0 0.00 0.60 0.00 94 1019.8
20260902045809 60 141 0.0 0.0 0.00 0.60 0.00 94 1019.7
20260902044807 60 141 0.0 0.0 0.00 0.60 0.00 94 1019.7
20260902043809 60 141 0.0 0.0 0.00 0.60 0.00 94 1019.3
20260902042808 60 141 0.0 0.0 0.00 0.60 0.00 94 1019.4
20260902041807 60 141 0.0 0.0 0.00 0.60 0.00 94 1019.4
20260902040807 60 141 0.0 0.0 0.00 0.60 0.00 94 1019.2
20260902040248 60 141 0.0 0.0 0.00 0.60 0.60 94 1018.7
20260902034802 60 141 0.0 0.0 0.00 0.60 0.60 94 1018.7
20260902033803 60 141 0.0 0.0 0.00 0.60 0.60 94 1018.6
20260902032802 61 141 0.0 0.0 0.00 0.60 0.60 94 1018.7
20260902031802 61 141 0.0 0.0 0.00 0.60 0.60 94 1018.7
20260902031238 61 141 0.0 0.0 0.00 0.60 0.60 94 1018.8
20260902025800 61 141 0.0 0.0 0.00 0.60 0.60 94 1018.7
20260902024802 61 141 0.0 0.0 0.00 0.60 0.60 94 1018.7
20260902024734 61 141 0.0 0.0 0.00 0.60 0.60 94 1019.0
20260902023715 61 141 0.0 0.0 0.00 0.60 0.60 94 1019.1
20260902021801 61 141 0.0 0.0 0.00 0.60 0.60 94 1019.1
20260902020800 61 141 0.0 0.0 0.00 0.60 0.60 94 1019.1
20260902015750 61 141 0.0 0.0 0.00 0.60 0.60 94 1019.0
20260902014752 61 141 0.0 0.0 0.00 0.60 0.60 94 1019.0
20260902013751 61 141 0.0 0.0 0.00 0.60 0.60 94 1018.7
20260902013230 61 141 0.0 0.0 0.00 0.60 0.60 94 1018.7
20260902011754 61 141 0.0 0.0 0.00 0.60 0.60 94 1018.7
20260902010748 61 141 0.0 0.0 0.00 0.60 0.60 94 1018.9
20260902005746 61 141 0.0 0.0 0.00 0.60 0.60 94 1018.7
20260902004746 61 141 0.0 0.0 0.00 0.60 0.60 94 1018.7
20260902004232 62 141 0.0 0.0 0.00 0.60 0.60 93 1018.5
20260902002732 62 141 0.0 0.0 0.00 0.60 0.60 93 1018.3
20260902002209 62 141 0.0 0.0 0.00 0.60 0.60 94 1018.3
20260902000729 62 141 0.0 0.0 0.00 0.60 0.60 94 1018.2
20260901235726 62 141 0.0 0.0 0.00 0.60 0.60 94 1018.2
20260901235202 62 141 0.0 0.0 0.00 0.60 0.60 94 1018.2
20260901233724 62 141 0.0 0.0 0.00 0.60 0.60 94 1018.3
20260901232726 62 141 0.0 0.0 0.00 0.60 0.60 94 1018.4
20260901231724 62 141 0.0 0.0 0.00 0.60 0.60 94 1018.4
20260901230725 62 141 0.0 0.0 0.00 0.60 0.60 93 1018.2
20260901225724 62 141 0.0 0.0 0.00 0.60 0.60 93 1018.1
20260901224725 62 141 0.0 0.0 0.00 0.60 0.60 93 1018.1
20260901223725 62 141 0.0 0.0 0.00 0.60 0.60 93 1018.1
20260901222723 62 141 0.0 0.0 0.00 0.60 0.60 93 1018.2
20260901221713 62 141 0.0 0.0 0.00 0.60 0.60 93 1018.2
20260901221618 62 141 0.0 0.9 0.00 0.60 0.60 93 1018.1